{"data":{"norad_id":65678,"intl_designator":"2025-212C","name":"STARLINK-35233","alt_names":[],"object_type":"PAYLOAD","status":"ACTIVE","operator":null,"country":"US","launch_date":"2025-09-21","launch_site_code":"AFETR","launch_vehicle":null,"mission":null,"orbit_class":"UNKNOWN","rcs_meters":null,"size_class":null,"mass_kg":null,"dimensions":null,"purposes":["comms"],"wikipedia_slug":null,"has_3d_model":false,"image_url":null,"decayed_at":null,"tle_current":{"epoch":"2026-05-24T20:59:07.948320Z","epoch_age_seconds":96424,"freshness":"FRESH","line1":"1 65678U 25212C   26144.87439755  .00028584  00000+0  97321-3 0  9990","line2":"2 65678  53.1595 352.0977 0001143  63.4294 296.6824 15.30209278 38917","mean_motion":15.30209278,"eccentricity":0.0001143,"inclination_deg":53.1595,"raan_deg":352.0977,"arg_perigee_deg":63.4294,"mean_anomaly_deg":296.6824,"bstar":0.00097321,"rev_number":3891,"period_min":94.104775124753,"perigee_km":474.4040321485,"apogee_km":475.97070209883,"semimajor_km":6853.3243671237,"source":"CELESTRAK","updated_at":"2026-05-25T13:38:20.893739Z"}}}